Change the Weather History Date:

Monday, March 25, 2013

  Actual Average Record
Temperature  
Mean Temperature 12 °F -  
Max Temperature 32 °F 41 °F 57 °F (2007)
Min Temperature -9 °F 15 °F -24 °F (1965)
Degree Days  
Heating Degree Days 54    
Moisture  
Dew Point 0 °F    
Average Humidity 73    
Maximum Humidity 92    
Minimum Humidity 30    
Precipitation  
Precipitation 0.00 in - - ()
Sea Level Pressure  
Sea Level Pressure 30.13 in    
Wind  
Wind Speed 6 mph (North)    
Max Wind Speed 12 mph    
Max Gust Speed -    
Visibility 10 miles    
Events      
Averages and records for this station are not official NWS values.
T = Trace of Precipitation, MM = Missing Value Source: NWS Daily Summary

Daily Weather History Graph

Daily Weather History Graph

Search for Another Location

Airport or City:

Trip Planner

Search our weather history database for the weather conditions in past years. The results will help you decide how hot, cold, wet, or windy it might be!

Date:

Astronomy

Mar. 25, 2013 Rise Set
Actual Time 7:16 AM MDT 7:41 PM MDT
Civil Twilight 6:47 AM MDT 8:10 PM MDT
Nautical Twilight 6:14 AM MDT 8:44 PM MDT
Astronomical Twilight 5:39 AM MDT 9:19 PM MDT
Moon 6:15 PM MDT (3/25) 6:04 AM MDT (3/25)
Length of Visible Light 13h 22m
Length of Day
12h 25m
Waxing Gibbous, 97% of the Moon is Illuminated
Mar 25
Waxing Gibbous
Mar 27
Full
Apr 2
Last Quarter
Apr 10
New
Apr 18
First Quarter

Hourly Weather History & Observations

Time (MDT) Temp. Windchill Dew Point Humidity Pressure Visibility Wind Dir Wind Speed Gust Speed Precip Events Conditions
12:15 AM 1.4 °F -11.3 °F -2.2 °F 85% 30.16 in 10.0 mi North 6.9 mph - N/A   Clear
12:35 AM -0.4 °F -12.0 °F -2.2 °F 92% 30.17 in 10.0 mi North 5.8 mph - N/A   Clear
12:55 AM -0.4 °F -10.4 °F -4.0 °F 85% 30.17 in 10.0 mi NNE 4.6 mph - N/A   Clear
1:15 AM -4.0 °F -22.1 °F -5.8 °F 92% 30.17 in 10.0 mi North 11.5 mph - N/A   Clear
1:35 AM -2.2 °F -18.0 °F -4.0 °F 92% 30.17 in 10.0 mi North 9.2 mph - N/A   Clear
1:55 AM -0.4 °F -14.7 °F -4.0 °F 85% 30.17 in 10.0 mi North 8.1 mph - N/A   Clear
2:35 AM -0.4 °F -13.4 °F -4.0 °F 85% 30.17 in 10.0 mi North 6.9 mph - N/A   Clear
2:55 AM 1.4 °F -12.5 °F -2.2 °F 85% 30.17 in 10.0 mi North 8.1 mph - N/A   Clear
3:15 AM -5.8 °F -21.2 °F -7.6 °F 92% 30.17 in 10.0 mi North 8.1 mph - N/A   Clear
3:35 AM -2.2 °F -15.6 °F -5.8 °F 85% 30.17 in 10.0 mi North 6.9 mph - N/A   Clear
3:55 AM -5.8 °F -18.4 °F -7.6 °F 92% 30.17 in 10.0 mi North 5.8 mph - N/A   Clear
4:15 AM -5.8 °F -22.4 °F -7.6 °F 92% 30.17 in 10.0 mi North 9.2 mph - N/A   Clear
4:35 AM -5.8 °F -22.4 °F -7.6 °F 92% 30.17 in 10.0 mi North 9.2 mph - N/A   Clear
4:55 AM -5.8 °F -21.2 °F -7.6 °F 92% 30.17 in 10.0 mi North 8.1 mph - N/A   Clear
5:15 AM -7.6 °F -24.6 °F -9.4 °F 92% 30.17 in 10.0 mi North 9.2 mph - N/A   Clear
5:35 AM -5.8 °F -18.4 °F -9.4 °F 84% 30.18 in 10.0 mi NNW 5.8 mph - N/A   Clear
6:15 AM -7.6 °F -20.6 °F -11.2 °F 84% 30.18 in 10.0 mi North 5.8 mph - N/A   Clear
6:35 AM -9.4 °F -22.7 °F -11.2 °F 92% 30.19 in 10.0 mi North 5.8 mph - N/A   Clear
6:52 AM -7.6 °F -23.4 °F -9.4 °F 92% 30.19 in 10.0 mi NNW 8.1 mph - N/A   Clear
7:52 AM -9.4 °F -26.8 °F -11.2 °F 92% 30.20 in 10.0 mi North 9.2 mph - N/A   Clear
8:51 AM -5.8 °F -21.2 °F -7.6 °F 92% 30.21 in 10.0 mi North 8.1 mph - N/A   Clear
9:51 AM 1.4 °F -9.9 °F -2.2 °F 85% 30.21 in 10.0 mi North 5.8 mph - N/A   Clear
10:51 AM 8.6 °F - 1.4 °F 73% 30.20 in 10.0 mi Calm Calm - N/A   Clear
11:51 AM 12.2 °F - 3.2 °F 67% 30.18 in 10.0 mi Calm Calm - N/A   Clear
12:54 PM 17.6 °F 9.3 °F 5.0 °F 58% 30.16 in 10.0 mi SSE 5.8 mph - N/A   Clear
1:52 PM 21.2 °F 16.4 °F 8.6 °F 58% 30.13 in 10.0 mi SSE 3.5 mph - N/A   Clear
3:18 PM 30.2 °F - 8.6 °F 40% 30.09 in 10.0 mi Calm Calm - N/A   Clear
3:53 PM 30.2 °F 21.9 °F 8.6 °F 40% 30.07 in 10.0 mi South 9.2 mph - N/A   Clear
5:55 PM 32.0 °F 23.0 °F 3.2 °F 30% 30.05 in 10.0 mi South 11.5 mph - N/A   Clear
6:51 PM 30.2 °F 22.6 °F 6.8 °F 37% 30.05 in 10.0 mi South 8.1 mph - N/A   Clear
7:53 PM 26.6 °F 19.1 °F 6.8 °F 43% 30.05 in 10.0 mi SW 6.9 mph - N/A   Clear
8:51 PM 21.2 °F 16.4 °F 10.4 °F 63% 30.06 in 10.0 mi SSW 3.5 mph - N/A   Clear
8:55 PM 24.8 °F - 8.6 °F 50% 30.06 in 10.0 mi Calm Calm - N/A   Clear
9:15 PM 24.8 °F - 10.4 °F 54% 30.06 in 10.0 mi Calm Calm - N/A   Clear
9:35 PM 23.0 °F - 10.4 °F 59% 30.06 in 10.0 mi Calm Calm - N/A   Clear
9:55 PM 24.8 °F 20.5 °F 8.6 °F 50% 30.06 in 10.0 mi West 3.5 mph - N/A   Scattered Clouds
10:15 PM 21.2 °F - 10.4 °F 63% 30.06 in 10.0 mi Calm Calm - N/A   Overcast
10:35 PM 21.2 °F - 10.4 °F 63% 30.06 in 10.0 mi Calm Calm - N/A   Overcast
10:55 PM 23.0 °F - 10.4 °F 59% 30.06 in 10.0 mi Calm Calm - N/A   Overcast
11:15 PM 21.2 °F - 10.4 °F 63% 30.06 in 10.0 mi Calm Calm - N/A   Overcast
11:35 PM 21.2 °F - 12.2 °F 68% 30.06 in 10.0 mi Calm Calm - N/A   Overcast
11:55 PM 15.8 °F 4.2 °F 8.6 °F 73% 30.06 in 10.0 mi North 9.2 mph - N/A   Overcast